Showing default

TJS-7, 49115

Orbit data source: Space-Track

TJS-7, 49115 is a payload satellite owned by CASC (CN) in GEO that was launched on Tue, 24 Aug 2021 UTC via a CHANG ZHENG 3B launch vehicle from the Xichang Space Center, China (XSC). Payload-class satellites include a variety of spacecraft equipped with specific instruments for various scientific and technological missions. These include communications satellites like Starlink; space stations such as the ISS; scientific satellites like the Hubble; Earth observation satellites from companies like Planet Labs, Umbra, and HawkEye 360; GPS; miniature CubeSats for education and research; and military/defense satellites.

Loading next visibility...
Identifier
49115, 2021-077A
Orbit
GEO
Country
Flag of CNCN / PRC
Related business
Manufacturer
SISE
Mission
Operational Defense Early Warn
Bus & Motor
FY-4?, Unknown motor
Mass
~4,000 kg wet, ~2,500 kg dry
Launch date (UTC)
2021-08-24 (5 years ago)
Launch vehicle
CHANG ZHENG 3B
Launch site
Xichang Space Center, China (XSC)
Object type
Payload
Rocket body
Debris
Shape & HBR
Box + 2 Pan, 15.0 m
Radar Cross Section
34.063 m², Large (>1 m²)

Expand to show TLE details & history
Last TLE update: 11 hours ago

TLE from 11 hours ago
0 TJS-7
1 49115U 21077A   26195.20374134 -.00000130  00000-0  00000+0 0  9998
2 49115   0.2888 264.0422 0003019 107.6480 254.2084  1.00269277  9825
Epoch: 2026-07-14T04:53Z
TLE epoch observation values (Epoch: 2026-07-14T04:53:23.251Z)
Latitude
-0.01248°
Longitude
-99.54244°
Altitude
35,790.216 km
Speed
3.074 km/s
True Right ascension
17h 43m 31s
True Declination
0° 00' 45"
Sunlit
Object was in daylight at epoch
Visualization orbit readout
Latitude
Unknown
Longitude
Unknown
Altitude
Unknown
Speed
Unknown
Apparent Right ascension
Unknown
Apparent Declination
Unknown
Sunlit
N/A
Visualization observer readout
Local Sidereal Time
04:19:28
Azimuth
Unknown
Elevation
Unknown
Doppler factor
Unknown
Orbital elements
Apogee altitude
35,801.098 km
Perigee altitude
35,775.638 km
Semi-major axis
42,166.505 km
Eccentricity
0.0003
Inclination
0.2888°
RAAN
264.0422°
Arg. of periapsis
107.648°
True anomaly
254.17511°
Mean anomaly
254.2084°
Eccentric anomaly
254.19176°
Mean motion
0.25066 °/min
Orbital period
1,436.19 mins
BSTAR
0
Loading maneuver chart data...
Computing Atmospheric mass density...
Loading historical data...
Loading historical data...
Loading historical data...
Loading historical data...
Loading historical data...
Loading historical data...
Loading historical data...
Other satellites on launch #77 in the year 2021 (2021-08-24 UTC)

Documentation

Showing up to 5 results
|